Date,TemperatureHighF,TemperatureAvgF,TemperatureLowF,DewpointHighF,DewpointAvgF,DewpointLowF,HumidityHigh,HumidityAvg,HumidityLow,PressureMaxIn,PressureMinIn,WindSpeedMaxMPH,WindSpeedAvgMPH,GustSpeedMaxMPH,PrecipitationSumIn
2013-7-1,76,73,68,-100,-100,-100,0,0,100,30.01,29.87,12,-684,12,1.68
2013-7-2,81,76,72,-100,-100,-100,0,0,100,30.16,30.01,8,-519,13,0.18
2013-7-3,83,75,70,-100,-100,-100,0,0,100,30.23,30.16,6,-718,13,0.04
2013-7-4,85,78,71,-100,-100,-100,0,0,100,30.24,30.15,10,-767,15,0.01
2013-7-5,88,80,70,-100,-100,-100,0,0,100,30.20,30.08,11,-537,13,0.00
2013-7-6,89,78,69,-100,-100,-100,0,0,100,30.14,30.02,12,-620,12,0.00
2013-7-7,88,79,69,-100,-100,-100,0,0,100,30.06,29.94,23,-650,23,0.25
2013-7-8,83,72,66,-100,-100,-100,0,0,100,30.05,29.97,10,-632,12,0.05
2013-7-9,86,74,65,-100,-100,-100,0,0,100,30.07,29.98,7,-789,10,0.01
2013-7-10,83,77,71,-100,-100,-100,0,0,100,30.01,29.81,7,-521,14,0.00
2013-7-11,82,75,68,-100,-100,-100,0,0,100,29.92,29.80,7,-848,10,0.02
2013-7-12,75,70,66,-100,-100,-100,0,0,100,30.05,29.92,15,-562,20,0.01
2013-7-13,79,72,66,-100,-100,-100,0,0,100,30.27,30.06,16,-475,17,0.02
2013-7-14,87,78,71,-100,-100,-100,0,0,100,30.34,30.24,8,-606,12,0.03
2013-7-15,91,78,68,-100,-100,-100,0,0,100,30.26,30.14,8,-760,13,0.01
2013-7-16,90,79,68,-100,-100,-100,0,0,100,30.21,30.12,6,-780,12,0.01
2013-7-17,92,80,68,-100,-100,-100,0,0,100,30.20,30.06,5,-919,7,0.00
2013-7-18,92,81,71,-100,-100,-100,0,0,100,30.07,29.97,7,-772,12,0.00
2013-7-19,92,81,73,-100,-100,-100,0,0,100,29.98,29.81,8,-604,17,0.05
2013-7-20,88,79,71,-100,-100,-100,0,0,100,29.84,29.74,13,-302,14,0.00
2013-7-21,84,76,69,-100,-100,-100,0,0,100,29.94,29.83,3,-914,10,0.03
2013-7-22,82,73,68,-100,-100,-100,0,0,100,29.94,29.78,6,-717,11,0.08
2013-7-23,82,74,69,-100,-100,-100,0,0,100,29.78,29.58,9,-639,21,0.02
2013-7-24,76,70,61,-100,-100,-100,0,0,100,29.93,29.64,5,-642,12,0.01
2013-7-25,68,62,57,-100,-100,-100,0,0,100,30.04,29.93,7,-625,12,0.01
2013-7-26,78,66,57,-100,-100,-100,0,0,100,30.06,30.00,6,-829,12,0.01
2013-7-27,82,69,55,-100,-100,-100,0,0,100,30.05,29.94,6,-578,13,0.01
2013-7-28,75,69,64,-100,-100,-100,0,0,100,29.97,29.88,8,-675,10,0.01
2013-7-29,78,68,57,-100,-100,-100,0,0,100,30.12,29.96,9,-585,14,0.01
2013-7-30,77,65,54,-100,-100,-100,0,0,100,30.19,30.12,0,-999,13,0.02
2013-7-31,78,68,54,-100,-100,-100,0,0,100,30.17,30.03,3,-956,7,0.01